{"data":{"norad_id":66361,"epoch":"2026-09-20T16:22:00.725376Z","epoch_age_seconds":77720,"freshness":"FRESH","line1":"1 66361U 25254P   26263.68195284  .00016646  00000+0  54664-3 0  9992","line2":"2 66361  53.1641  45.0434 0000893  80.3396 279.7706 15.31719740 48854","mean_motion":15.3171974,"eccentricity":8.93e-5,"inclination_deg":53.1641,"raan_deg":45.0434,"arg_perigee_deg":80.3396,"mean_anomaly_deg":279.7706,"bstar":0.00054664,"rev_number":4885,"period_min":94.011976368471,"perigee_km":470.06955248382,"apogee_km":471.29275140576,"semimajor_km":6848.8181519448,"source":"CELESTRAK","updated_at":"2026-09-21T09:00:35.881761Z"}}